Flag for Canada

Past Weather in Oshawa, Ontario, Canada — Yesterday and Last 2 Weeks

Now
72 °F

Clear.


Feels Like: 67 °F
Forecast: 77 / 71 °F
Wind: 5 mph from North

Location: Oshawa

Current Time: Jul 11, 2020 at 4:50:48 am

Latest Report: Jul 11, 2020 at 4:00 am


Visibility: 9 mi

Pressure: 29.62 "Hg

Humidity: 94%

Dew Point: 70 °F

Location of OshawaLocation

Past Weather in Oshawa — Graph

°F

Oshawa Temperature Yesterday

Maximum temperature yesterday: 90 °F (at 3:00 pm)
Minimum temperature yesterday: 73 °F (at 10:15 pm)
Average temperature yesterday: 81 °F

High & Low Weather Summary for the Past Weeks

 TemperatureHumidityPressure
High93 °F (Jul 2, 2:00 pm)100% (Jun 27, 8:09 am)30.05 "Hg (Jun 27, 8:09 am)
Low54 °F (Jun 26, 5:00 am)26% (Jul 5, 3:00 pm)29.63 "Hg (Jul 11, 3:00 am)
Average77 °F64%29.89 "Hg
* Reported Jun 26 3:00 am — Jul 11 3:00 am, Oshawa. Weather by CustomWeather, © 2020

Note: Actual official high and low records may vary slightly from our data, if they occured in-between our weather recording intervals... More about our weather records

Oshawa Weather History for the Previous 24 Hours

Scroll right to see more
 ConditionsComfort  
Time TempWeatherWind HumidityBarometerVisibility
3:00 am
Sat, Jul 11
72 °FPassing clouds.6 mph100%29.63 "Hg9 mi
2:00 am73 °FClear.7 mph94%29.65 "Hg9 mi
1:00 am73 °FMostly cloudy.5 mph94%29.67 "Hg9 mi
12:00 am73 °FPassing clouds.10 mph94%29.68 "Hg9 mi
11:03 pm
Fri, Jul 10
75 °FPassing clouds.8 mph83%29.71 "Hg9 mi
10:30 pm73 °FThunderstorms. Overcast.8 mph83%29.71 "Hg9 mi
10:15 pm73 °FStrong thunderstorms. Fog.15 mph89%29.71 "Hg6 mi
9:38 pm82 °FThundershowers. Overcast.12 mph66%29.70 "Hg9 mi
8:55 pm82 °FThundershowers. Cloudy.10 mph62%29.71 "Hg9 mi
8:00 pm86 °FBroken clouds.14 mph55%29.71 "Hg9 mi
7:00 pm88 °FSunny.14 mph52%29.72 "Hg9 mi
6:00 pm88 °FSunny.14 mph55%29.73 "Hg9 mi
5:00 pm90 °FSunny.16 mph49%29.75 "Hg9 mi
4:00 pm90 °FSunny.15 mph52%29.77 "Hg9 mi
3:00 pm90 °FSunny.12 mph52%29.78 "Hg9 mi
2:00 pm88 °FSunny.9 mph52%29.80 "Hg9 mi
1:05 pm88 °FHaze.8 mph55%29.83 "Hg6 mi
12:55 pm86 °FHaze.8 mph55%29.84 "Hg5 mi
12:00 pm84 °FSunny.6 mph62%29.85 "Hg9 mi
11:00 am84 °FScattered clouds.7 mph62%29.85 "Hg9 mi
10:00 am82 °FSunny.6 mph66%29.86 "Hg9 mi
9:00 am81 °FSunny.7 mph74%29.87 "Hg9 mi
8:00 am77 °FScattered clouds.6 mph89%29.87 "Hg9 mi
7:00 am75 °FMostly cloudy.6 mph89%29.87 "Hg9 mi
6:00 am75 °FMostly cloudy.3 mph94%29.86 "Hg9 mi
5:00 am77 °FPassing clouds.5 mph83%29.86 "Hg9 mi
4:57 am77 °FPassing clouds.3 mph83%29.85 "Hg9 mi
4:32 am75 °FLight rain. Passing clouds.No wind89%29.85 "Hg9 mi
4:21 am77 °FMostly cloudy.2 mph83%29.85 "Hg9 mi
4:01 am75 °FLight rain. Overcast.3 mph89%29.85 "Hg9 mi
Weather by CustomWeather, © 2020

See weather overview